Location: ??????
(38.1303°N, 24.0039°E)
Time: 11:54:51
(UTC+00:00)

Cosmos 2315 Rocket - Pass Details

Date: 20 June 2021
Orbit: 966 x 1002 km, 82.9° (Epoch: 01 August)

Event Time Altitude Azimuth Distance (km) Brightness Sun altitude
Rises 01:56:58 0° 351° (N) 3,664 7.5 -11.0°
Reaches altitude 10° 01:59:28 10° 350° (N) 2,712 6.8 -10.6°
Maximum altitude 02:05:40 78° 265° (W) 989 4.0 -9.7°
Drops below altitude 10° 02:11:50 10° 180° (S) 2,702 6.0 -8.7°
Sets 02:14:20 0° 179° (S) 3,649 6.6 -8.4°
